When you browse on this site, cookies collect data to enhance your experience and personalize the content and advertising you see.
Visit our Privacy Policy to learn more. By continuing to use the site, you agree to this use of cookies and data.
  • In United Kingdom
  • List of Countries
  • For 7 days
  • Water Temperature
  • Weather Map
  • Weather Widgets
  • user-avatar
    Login

    Hourly Weather Idolta

    Today, 8 April, Wednesday

    Time Temperature Precipitation Wind Pressure Humidity
    00:00 +8°C° 0 mm 5 mps 754 mmHg 73%
    01:00 +7°C° 0 mm 5 mps 754 mmHg 75%
    02:00 +6°C° 0 mm 5 mps 754 mmHg 78%
    03:00 +6°C° 0 mm 5 mps 754 mmHg 76%
    04:00 +5°C° 0 mm 6 mps 755 mmHg 74%
    05:00 +5°C° 0 mm 6 mps 755 mmHg 72%
    06:00 +5°C° 0 mm 6 mps 755 mmHg 73%
    07:00 +5°C° 0 mm 6 mps 756 mmHg 73%
    08:00 +5°C° 0 mm 6 mps 757 mmHg 72%
    09:00 +7°C° 0 mm 5 mps 757 mmHg 66%
    10:00 +8°C° 0 mm 5 mps 757 mmHg 59%
    11:00 +9°C° 0 mm 5 mps 757 mmHg 52%
    12:00 +10°C° 0 mm 5 mps 757 mmHg 49%
    13:00 +12°C° 0 mm 5 mps 757 mmHg 45%
    14:00 +12°C° 0 mm 4 mps 757 mmHg 42%
    15:00 +12°C° 0 mm 4 mps 756 mmHg 42%
    16:00 +12°C° 0 mm 4 mps 756 mmHg 43%
    17:00 +12°C° 0 mm 3 mps 756 mmHg 43%
    18:00 +10°C° 0 mm 3 mps 756 mmHg 48%
    19:00 +9°C° 0 mm 2 mps 755 mmHg 53%
    20:00 +7°C° 0 mm 2 mps 755 mmHg 58%
    21:00 +7°C° 0 mm 2 mps 755 mmHg 62%
    22:00 +6°C° 0 mm 2 mps 754 mmHg 65%
    23:00 +6°C° 0 mm 2 mps 754 mmHg 68%

    Tomorrow, 9 April, Thursday

    Time Temperature Precipitation Wind Pressure Humidity
    00:00 +5°C° 0 mm 2 mps 753 mmHg 71%
    01:00 +4°C° 0 mm 3 mps 753 mmHg 73%
    02:00 +4°C° 0 mm 3 mps 752 mmHg 76%
    03:00 +4°C° 0 mm 3 mps 752 mmHg 75%
    04:00 +4°C° 0 mm 4 mps 751 mmHg 74%
    05:00 +5°C° 0 mm 4 mps 750 mmHg 74%
    06:00 +5°C° 0 mm 5 mps 749 mmHg 70%
    07:00 +6°C° 0 mm 5 mps 749 mmHg 67%
    08:00 +7°C° 0 mm 6 mps 748 mmHg 63%
    09:00 +8°C° 0.1 mm 5 mps 748 mmHg 64%
    10:00 +9°C° 0.1 mm 5 mps 747 mmHg 65%
    11:00 +10°C° 0.1 mm 4 mps 747 mmHg 66%
    12:00 +10°C° 1.5 mm 4 mps 746 mmHg 75%
    13:00 +8°C° 1.5 mm 4 mps 745 mmHg 83%
    14:00 +7°C° 1.5 mm 4 mps 745 mmHg 91%
    15:00 +8°C° 0.2 mm 4 mps 745 mmHg 86%
    16:00 +10°C° 0.2 mm 4 mps 745 mmHg 81%
    17:00 +10°C° 0.2 mm 4 mps 745 mmHg 75%
    18:00 +8°C° 0.3 mm 4 mps 745 mmHg 78%
    19:00 +7°C° 0.3 mm 4 mps 745 mmHg 80%
    20:00 +5°C° 0.3 mm 4 mps 746 mmHg 82%
    21:00 +4°C° 0 mm 4 mps 746 mmHg 79%
    22:00 +3°C° 0 mm 4 mps 747 mmHg 75%
    23:00 +1°C° 0 mm 4 mps 747 mmHg 71%

    Day after tomorrow, 10 April, Friday

    Time Temperature Precipitation Wind Pressure Humidity
    00:00 0°C° 0 mm 4 mps 748 mmHg 74%
    01:00 -1°C° 0 mm 4 mps 748 mmHg 76%
    02:00 -1°C° 0 mm 4 mps 748 mmHg 79%
    03:00 -2°C° 0 mm 4 mps 748 mmHg 81%
    04:00 -2°C° 0 mm 4 mps 749 mmHg 83%
    05:00 -2°C° 0 mm 4 mps 749 mmHg 85%
    06:00 -1°C° 0 mm 4 mps 749 mmHg 81%
    07:00 0°C° 0 mm 4 mps 750 mmHg 78%
    08:00 +1°C° 0 mm 5 mps 750 mmHg 74%
    09:00 +2°C° 0 mm 5 mps 750 mmHg 69%
    10:00 +3°C° 0 mm 5 mps 750 mmHg 63%
    11:00 +6°C° 0 mm 5 mps 750 mmHg 57%
    12:00 +6°C° 0.1 mm 5 mps 750 mmHg 53%
    13:00 +7°C° 0.1 mm 5 mps 750 mmHg 49%
    14:00 +7°C° 0.1 mm 5 mps 750 mmHg 45%
    15:00 +7°C° 0.1 mm 6 mps 750 mmHg 44%
    16:00 +5°C° 0.1 mm 6 mps 750 mmHg 44%
    17:00 +5°C° 0.1 mm 7 mps 750 mmHg 43%
    18:00 +3°C° 0 mm 6 mps 751 mmHg 48%
    19:00 +2°C° 0 mm 5 mps 751 mmHg 53%
    20:00 +1°C° 0 mm 4 mps 752 mmHg 58%
    21:00 0°C° 0 mm 4 mps 752 mmHg 60%
    22:00 -1°C° 0 mm 4 mps 752 mmHg 62%
    23:00 -1°C° 0 mm 4 mps 752 mmHg 64%

    11 April, Saturday

    Time Temperature Precipitation Wind Pressure Humidity
    00:00 -2°C° 0 mm 4 mps 753 mmHg 68%
    01:00 -2°C° 0 mm 4 mps 753 mmHg 71%
    02:00 -3°C° 0 mm 4 mps 753 mmHg 75%
    03:00 -3°C° 0 mm 4 mps 753 mmHg 73%
    04:00 -3°C° 0 mm 4 mps 754 mmHg 71%
    05:00 -3°C° 0 mm 4 mps 754 mmHg 69%
    06:00 -2°C° 0 mm 4 mps 754 mmHg 62%
    07:00 -1°C° 0 mm 5 mps 754 mmHg 56%
    08:00 0°C° 0 mm 5 mps 755 mmHg 49%
    09:00 +1°C° 0 mm 5 mps 755 mmHg 46%
    10:00 +2°C° 0 mm 5 mps 755 mmHg 42%
    11:00 +3°C° 0 mm 5 mps 755 mmHg 39%
    12:00 +5°C° 0 mm 5 mps 755 mmHg 41%
    13:00 +5°C° 0 mm 5 mps 755 mmHg 42%
    14:00 +6°C° 0 mm 4 mps 755 mmHg 43%
    15:00 +6°C° 0 mm 4 mps 755 mmHg 45%
    16:00 +6°C° 0 mm 4 mps 754 mmHg 47%
    17:00 +6°C° 0 mm 4 mps 754 mmHg 49%
    18:00 +5°C° 0 mm 3 mps 754 mmHg 56%
    19:00 +3°C° 0 mm 3 mps 754 mmHg 62%
    20:00 +2°C° 0 mm 3 mps 754 mmHg 69%
    21:00 +3°C° 0 mm 2 mps 754 mmHg 71%
    22:00 +3°C° 0 mm 2 mps 754 mmHg 74%
    23:00 +3°C° 0 mm 2 mps 754 mmHg 76%

    12 April, Sunday

    Time Temperature Precipitation Wind Pressure Humidity
    00:00 +2°C° 0 mm 2 mps 754 mmHg 77%
    01:00 +1°C° 0 mm 3 mps 754 mmHg 77%
    02:00 0°C° 0 mm 3 mps 754 mmHg 78%
    03:00 +1°C° 0 mm 2 mps 754 mmHg 77%
    04:00 +1°C° 0 mm 2 mps 753 mmHg 77%
    05:00 +1°C° 0 mm 2 mps 753 mmHg 77%
    06:00 +1°C° 0 mm 3 mps 753 mmHg 71%
    07:00 +2°C° 0 mm 3 mps 752 mmHg 65%
    08:00 +3°C° 0 mm 4 mps 752 mmHg 60%
    09:00 +4°C° 0 mm 4 mps 751 mmHg 60%
    10:00 +5°C° 0 mm 5 mps 751 mmHg 61%
    11:00 +6°C° 0 mm 5 mps 750 mmHg 62%
    12:00 +4°C° 0.3 mm 6 mps 749 mmHg 70%
    13:00 +4°C° 0.3 mm 6 mps 748 mmHg 78%
    14:00 +3°C° 0.3 mm 6 mps 748 mmHg 86%
    15:00 +3°C° 0.7 mm 6 mps 747 mmHg 88%
    16:00 +3°C° 0.7 mm 6 mps 746 mmHg 90%
    17:00 +3°C° 0.7 mm 6 mps 745 mmHg 92%
    18:00 +3°C° 1 mm 6 mps 744 mmHg 92%
    19:00 +4°C° 1 mm 6 mps 743 mmHg 92%
    20:00 +4°C° 1 mm 6 mps 742 mmHg 92%
    21:00 +4°C° 0.7 mm 6 mps 741 mmHg 92%
    22:00 +4°C° 0.7 mm 6 mps 740 mmHg 92%
    23:00 +5°C° 0.7 mm 5 mps 739 mmHg 91%

    13 April, Monday

    Time Temperature Precipitation Wind Pressure Humidity
    00:00 +5°C° 0.4 mm 5 mps 738 mmHg 91%
    01:00 +6°C° 0.4 mm 5 mps 738 mmHg 90%
    02:00 +6°C° 0.4 mm 5 mps 737 mmHg 89%
    03:00 +6°C° 0.4 mm 5 mps 736 mmHg 90%
    04:00 +5°C° 0.4 mm 5 mps 736 mmHg 91%
    05:00 +5°C° 0.4 mm 4 mps 735 mmHg 93%
    06:00 +5°C° 0.2 mm 5 mps 735 mmHg 92%
    07:00 +3°C° 0.2 mm 5 mps 735 mmHg 92%
    08:00 +3°C° 0.2 mm 6 mps 735 mmHg 92%
    09:00 +3°C° 0.1 mm 6 mps 735 mmHg 84%
    10:00 +3°C° 0.1 mm 6 mps 736 mmHg 75%
    11:00 +2°C° 0.1 mm 6 mps 736 mmHg 67%
    12:00 +3°C° 0 mm 6 mps 736 mmHg 60%
    13:00 +3°C° 0 mm 6 mps 736 mmHg 54%
    14:00 +4°C° 0 mm 6 mps 736 mmHg 47%
    15:00 +3°C° 0 mm 6 mps 736 mmHg 46%
    16:00 +3°C° 0 mm 6 mps 736 mmHg 46%
    17:00 +2°C° 0 mm 6 mps 736 mmHg 46%
    18:00 +1°C° 0 mm 5 mps 736 mmHg 50%
    19:00 0°C° 0 mm 5 mps 736 mmHg 55%
    20:00 -2°C° 0 mm 4 mps 736 mmHg 59%
    21:00 -2°C° 0 mm 4 mps 736 mmHg 65%
    22:00 -4°C° 0 mm 5 mps 737 mmHg 71%
    23:00 -4°C° 0 mm 5 mps 737 mmHg 77%
    Show more